TimeEDT,TemperatureF,Dew PointF,Humidity,Sea Level PressureIn,VisibilityMPH,Wind Direction,Wind SpeedMPH,Gust SpeedMPH,PrecipitationIn,Events,Conditions,WindDirDegrees,DateUTC
12:53 AM,73.0,71.1,93,30.09,10.0,Calm,Calm,-,N/A,,Clear,0,2013-10-04 04:53:00
1:53 AM,72.0,70.0,93,30.09,9.0,Calm,Calm,-,N/A,,Clear,0,2013-10-04 05:53:00
2:53 AM,72.0,70.0,93,30.07,9.0,Calm,Calm,-,N/A,,Clear,0,2013-10-04 06:53:00
3:02 AM,71.6,69.8,94,30.07,7.0,Calm,Calm,-,N/A,,Partly Cloudy,0,2013-10-04 07:02:00
3:53 AM,71.1,70.0,96,30.06,10.0,Calm,Calm,-,N/A,,Clear,0,2013-10-04 07:53:00
4:53 AM,71.1,69.1,93,30.06,10.0,Calm,Calm,-,N/A,,Clear,0,2013-10-04 08:53:00
5:49 AM,69.8,69.8,100,30.07,10.0,Calm,Calm,-,N/A,,Scattered Clouds,0,2013-10-04 09:49:00
5:53 AM,70.0,68.0,93,30.07,10.0,Calm,Calm,-,N/A,,Mostly Cloudy,0,2013-10-04 09:53:00
6:31 AM,69.8,68.0,94,30.08,1.5,North,3.5,-,N/A,,Overcast,360,2013-10-04 10:31:00
6:41 AM,69.8,69.8,100,30.08,0.8,North,3.5,-,N/A,,Mist,350,2013-10-04 10:41:00
6:51 AM,69.8,69.8,100,30.08,1.5,Calm,Calm,-,N/A,,Overcast,0,2013-10-04 10:51:00
6:53 AM,70.0,69.1,97,30.09,2.0,Calm,Calm,-,N/A,,Overcast,0,2013-10-04 10:53:00
7:02 AM,71.6,69.8,94,30.08,7.0,Calm,Calm,-,N/A,,Overcast,0,2013-10-04 11:02:00
7:43 AM,71.6,69.8,94,30.09,1.8,Calm,Calm,-,N/A,,Overcast,0,2013-10-04 11:43:00
7:53 AM,71.1,70.0,96,30.10,1.0,Calm,Calm,-,N/A,,Overcast,0,2013-10-04 11:53:00
7:59 AM,71.6,69.8,94,30.10,3.0,NNW,3.5,-,N/A,,Overcast,340,2013-10-04 11:59:00
8:42 AM,71.6,69.8,94,30.11,1.8,North,3.5,-,N/A,,Overcast,10,2013-10-04 12:42:00
8:53 AM,72.0,71.1,97,30.12,1.2,NNE,3.5,-,N/A,,Mostly Cloudy,20,2013-10-04 12:53:00
8:56 AM,73.4,71.6,94,30.12,3.0,North,3.5,-,N/A,,Mostly Cloudy,360,2013-10-04 12:56:00
9:07 AM,73.4,71.6,94,30.12,10.0,North,3.5,-,N/A,,Scattered Clouds,10,2013-10-04 13:07:00
9:53 AM,77.0,73.9,90,30.13,10.0,NNE,6.9,-,N/A,,Clear,30,2013-10-04 13:53:00
10:53 AM,82.0,73.9,76,30.14,10.0,North,6.9,-,N/A,,Scattered Clouds,360,2013-10-04 14:53:00
11:00 AM,80.6,73.4,79,30.14,10.0,North,6.9,-,N/A,,Mostly Cloudy,360,2013-10-04 15:00:00
11:24 AM,78.8,73.4,83,30.14,10.0,North,6.9,-,N/A,,Overcast,350,2013-10-04 15:24:00
11:53 AM,79.0,73.0,82,30.13,10.0,NW,3.5,-,N/A,,Overcast,320,2013-10-04 15:53:00
12:42 PM,82.4,73.4,74,30.13,10.0,ENE,8.1,-,N/A,,Scattered Clouds,70,2013-10-04 16:42:00
12:53 PM,82.9,73.9,74,30.12,10.0,ENE,9.2,-,N/A,,Partly Cloudy,70,2013-10-04 16:53:00
1:53 PM,82.0,73.0,74,30.11,10.0,ENE,11.5,-,N/A,,Scattered Clouds,70,2013-10-04 17:53:00
2:53 PM,82.0,71.1,69,30.08,10.0,ENE,11.5,-,N/A,,Scattered Clouds,60,2013-10-04 18:53:00
3:53 PM,81.0,71.1,72,30.07,10.0,ENE,11.5,-,N/A,,Clear,60,2013-10-04 19:53:00
4:53 PM,80.1,72.0,76,30.06,10.0,ENE,10.4,-,N/A,,Clear,70,2013-10-04 20:53:00
5:53 PM,79.0,72.0,79,30.06,10.0,ENE,9.2,-,N/A,,Clear,70,2013-10-04 21:53:00
6:53 PM,77.0,72.0,84,30.07,10.0,East,6.9,-,N/A,,Clear,80,2013-10-04 22:53:00
7:53 PM,77.0,71.1,82,30.08,10.0,East,8.1,-,N/A,,Clear,80,2013-10-04 23:53:00
8:53 PM,75.9,71.1,85,30.09,10.0,East,5.8,-,N/A,,Clear,80,2013-10-05 00:53:00
9:53 PM,75.9,72.0,87,30.11,10.0,East,3.5,-,N/A,,Clear,90,2013-10-05 01:53:00
10:53 PM,75.0,71.1,87,30.11,10.0,Calm,Calm,-,N/A,,Clear,0,2013-10-05 02:53:00
11:53 PM,73.0,71.1,93,30.11,10.0,Calm,Calm,-,N/A,,Clear,0,2013-10-05 03:53:00